Regional Weather Roundup
Issued by NWS

Home | Current Version | Previous Version | Text Only | Print | Product List | Glossary Off
Versions: 1 2 3 4 5 6 7 8 9 10 11 12 13 14 15 16 17 18 19 20 21 22 23 24 25 26 27 28 29 30 31 32 33 34 35 36 37 38 39 40 41 42 43 44 45 46 47 48 49 50

000
ASUS43 KLOT 301502
RWRIL

ILLINOIS REGIONAL WEATHER ROUNDUP
NATIONAL WEATHER SERVICE CHICAGO/ROMEOVILLE IL
1000 AM CDT SAT MAY 30 2015

NOTE: "FAIR" INDICATES FEW OR NO CLOUDS BELOW 12,000 FEET WITH NO
SIGNIFICANT WEATHER AND/OR OBSTRUCTIONS TO VISIBILITY.

* THESE STATIONS ARE NOT UNDER NWS QUALITY CONTROL. THEY ALSO MAY NOT
  REPORT WEATHER SUCH AS PRECIPITATION OR FOG.

ILZ001-002-007-009-015-016-024-301600-
NORTHWEST ILLINOIS

CITY           SKY/WX    TMP DP  RH WIND       PRES   REMARKS
MOLINE         LGT RAIN  68  65  90 S3        29.97S FOG
STERLING*      CLOUDY    66  63  88 W5        29.99R
$$

ILZ003-004-008-010-011-017-018-301600-
NORTH CENTRAL ILLINOIS

CITY           SKY/WX    TMP DP  RH WIND       PRES   REMARKS
ROCKFORD       LGT RAIN  67  65  93 SW5       29.99S FOG
$$

ILZ005-006-012>014-019>023-301600-
NORTHEAST ILLINOIS

CITY           SKY/WX    TMP DP  RH WIND       PRES   REMARKS
CHICAGO-OHARE  LGT RAIN  68  63  84 CALM      29.99R
CHICAGO-MIDWAY CLOUDY    71  65  81 W5        29.99S
AURORA         CLOUDY    69  63  81 SW5       30.00R
WAUKEGAN       CLOUDY    51  50  96 N15       30.02R
DUPAGE AIRPORT CLOUDY    69  64  84 SW6       29.99R
WHEELING       CLOUDY    55  53  93 NE9       30.02R
NORTHERLY ISL    N/A     64  61  90 NE2         N/A
$$

LMZ740>746-301600-
SOUTHERN LAKE MICHIGAN

STATION/POSITION SKY/WX   TEMP    WIND        PRES    VSBY  WAVE
                          AIR SEA DIR/SP/G                  HT/PER
                          (F)     (DEG/KT/KT) (MB)    (MI)  (FT/S)
SOUTHERN BUOY              42 38  360/ 10/ 12 1016.0          0
HARRISON CRIB              66     130/  3/  5   N/A
BURNHAM HARBOR             70     210/  2/  6   N/A
CALUMET HARBOR             69     160/  5/  7   N/A
BURNS HARBOR               69     190/  6/  8 1016.6R
MICHIGAN CITY              69     180/  6/  7   N/A
MICHIGAN CITY 6N           62 57  210/  6/  6   N/A           0
ST. JOSEPH                 61 57  230/  6/  6   N/A           1
$$

ILZ025>027-034>036-040-047-049-050-058-095>099-301600-
WEST-CENTRAL ILLINOIS

CITY           SKY/WX    TMP DP  RH WIND       PRES   REMARKS
QUINCY         CLOUDY    68  65  90 NW5       29.98S
$$

ILZ028>032-037-038-041>044-048-051>054-059>061-301600-
CENTRAL ILLINOIS

CITY           SKY/WX    TMP DP  RH WIND       PRES   REMARKS
DECATUR        CLOUDY    72  67  84 E9        29.97S
PEORIA         CLOUDY    71  65  81 CALM      29.99R
SPRINGFIELD    LGT RAIN  70  66  87 CALM      29.98R FOG
TAYLORVILLE    NOT AVBL
$$

ILZ033-039-045-046-055>057-062-063-301600-
EAST-CENTRAL ILLINOIS

CITY           SKY/WX    TMP DP  RH WIND       PRES   REMARKS
CHAMPAIGN      CLOUDY    71  67  87 E14       29.98F
MATTOON        CLOUDY    73  69  87 S7        29.98S
$$

ILZ079-100>102-301600-
SOUTHWEST ILLINOIS

CITY           SKY/WX    TMP DP  RH WIND       PRES   REMARKS
BELLEVILLE     PTSUNNY   73  72  95 E2        29.95S
CAHOKIA*       CLOUDY    73  67  81 W3        29.96S
$$

ILZ064>066-069>071-074>076-080>082-084>086-088>090-092>094-301600-
SOUTH-CENTRAL ILLINOIS

CITY           SKY/WX    TMP DP  RH WIND       PRES   REMARKS
CARBONDALE     PTSUNNY   76  69  79 S12       29.97F
MARION         PTSUNNY   75  70  83 S9        29.99S
MT. VERNON     PTSUNNY   75  68  78 S10       29.98F
$$

ILZ067-068-072-073-078-083-087-091-301600-
SOUTHEAST ILLINOIS

CITY           SKY/WX    TMP DP  RH WIND       PRES   REMARKS
LAWRENCEVILLE  PTSUNNY   81  67  62 S14       30.00F HX  83
$$

ABBREVIATIONS USED IN REMARKS
   TC - TEMPERATURE IN CELSIUS
  WCI - WIND CHILL INDEX
   HX - HEAT INDEX
  VSB - VISIBILITY
$$




USA.gov is the U.S. government's official web portal to all federal, state and local government web resources and services.